LOT6343 EPWA-LEMH

Flight info

Callsign LOT6343
Flight time N/A
Altitude 38000
Route EVINA DCT NAVUR DCT TUSIN DCT MIKOV DCT DETSA/N0453F370 DCT PIDAD DCT TALEP DCT RARQU DCT BALEN UT250 RIXOT
Aircraft B38M/M-SADFGHIRWXYZ/LB1

Departure

Time 2026-05-08 08:18
Airport Warsaw Chopin Airport (EPWA)

Arrival

Time N/A
Airport Menorca Airport (LEMH)
Time Latitude Longitude Altitude Speed Heading
2026-05-08 07:48 52.17239 20.96640 339 ft 0 kts 207°
2026-05-08 08:13 52.17234 20.96637 337 ft 3 kts 207°
2026-05-08 08:14 52.17187 20.96589 341 ft 12 kts 188°
2026-05-08 08:14 52.17100 20.96651 341 ft 15 kts 152°
2026-05-08 08:14 52.17003 20.96735 339 ft 17 kts 152°
2026-05-08 08:14 52.16898 20.96826 340 ft 18 kts 152°
2026-05-08 08:15 52.16781 20.96928 338 ft 20 kts 152°
2026-05-08 08:15 52.16655 20.97039 339 ft 21 kts 152°
2026-05-08 08:15 52.16518 20.97159 337 ft 23 kts 152°
2026-05-08 08:15 52.16414 20.97291 336 ft 20 kts 121°
2026-05-08 08:16 52.16355 20.97498 338 ft 21 kts 113°
2026-05-08 08:16 52.16293 20.97716 338 ft 22 kts 116°
2026-05-08 08:16 52.16228 20.97947 336 ft 23 kts 114°
2026-05-08 08:16 52.16167 20.98166 337 ft 18 kts 114°
2026-05-08 08:17 52.16129 20.98290 339 ft 9 kts 128°
2026-05-08 08:17 52.16090 20.98347 334 ft 5 kts 100°
2026-05-08 08:17 52.16108 20.98355 335 ft 6 kts 318°
2026-05-08 08:17 52.16190 20.98083 339 ft 61 kts 295°
2026-05-08 08:18 52.16354 20.97495 338 ft 109 kts 295°
2026-05-08 08:18 52.16755 20.96073 391 ft 159 kts 296°
2026-05-08 08:18 52.17234 20.94415 1038 ft 166 kts 297°
2026-05-08 08:18 52.17746 20.92641 1773 ft 172 kts 296°
2026-05-08 08:19 52.18199 20.90804 2437 ft 184 kts 289°
2026-05-08 08:19 52.18399 20.88620 2739 ft 213 kts 269°
2026-05-08 08:19 52.18080 20.86115 3132 ft 237 kts 256°
2026-05-08 08:19 52.17633 20.83415 3636 ft 256 kts 256°
2026-05-08 08:20 52.17176 20.80556 4409 ft 260 kts 256°
2026-05-08 08:20 52.16515 20.77817 5133 ft 273 kts 236°
2026-05-08 08:20 52.15067 20.75648 5683 ft 295 kts 212°
2026-05-08 08:20 52.13260 20.73934 6507 ft 300 kts 213°
2026-05-08 08:21 52.11498 20.72171 7462 ft 302 kts 213°
2026-05-08 08:21 52.09696 20.70366 8365 ft 306 kts 213°
2026-05-08 08:21 52.07872 20.68536 9281 ft 309 kts 212°
2026-05-08 08:21 52.06029 20.66689 10153 ft 312 kts 212°
2026-05-08 08:22 52.04170 20.64826 10941 ft 316 kts 212°
2026-05-08 08:22 52.02282 20.62937 11696 ft 320 kts 212°
2026-05-08 08:22 52.00377 20.61032 12447 ft 324 kts 212°
2026-05-08 08:22 51.98440 20.59100 13204 ft 328 kts 212°
2026-05-08 08:23 51.96508 20.57173 13903 ft 332 kts 212°
2026-05-08 08:23 51.94517 20.55189 14543 ft 336 kts 212°
2026-05-08 08:23 51.92519 20.53201 15200 ft 338 kts 212°
2026-05-08 08:23 51.90504 20.51196 15899 ft 339 kts 212°
2026-05-08 08:24 51.88504 20.49211 16530 ft 342 kts 212°
2026-05-08 08:24 51.86467 20.47191 17145 ft 345 kts 212°
2026-05-08 08:24 51.84401 20.45144 17761 ft 347 kts 212°
2026-05-08 08:24 51.82328 20.43092 18353 ft 350 kts 212°
2026-05-08 08:25 51.80240 20.41029 18872 ft 353 kts 212°
2026-05-08 08:25 51.78163 20.38977 19377 ft 355 kts 212°
2026-05-08 08:25 51.76039 20.36883 19880 ft 357 kts 212°
2026-05-08 08:25 51.73912 20.34786 20357 ft 359 kts 212°
2026-05-08 08:26 51.71767 20.32675 20858 ft 361 kts 212°
2026-05-08 08:26 51.69637 20.30583 21338 ft 363 kts 212°
2026-05-08 08:26 51.67467 20.28451 21826 ft 366 kts 211°
2026-05-08 08:26 51.65287 20.26313 22312 ft 368 kts 211°
2026-05-08 08:27 51.63094 20.24164 22797 ft 370 kts 211°
2026-05-08 08:27 51.60881 20.21999 23294 ft 373 kts 211°
2026-05-08 08:27 51.58682 20.19850 23758 ft 375 kts 211°
2026-05-08 08:27 51.56444 20.17664 24177 ft 377 kts 211°
2026-05-08 08:28 51.54193 20.15469 24614 ft 379 kts 211°
2026-05-08 08:28 51.51920 20.13256 25050 ft 382 kts 211°
2026-05-08 08:28 51.49638 20.11035 25469 ft 384 kts 211°
2026-05-08 08:28 51.47346 20.08808 25929 ft 385 kts 211°
2026-05-08 08:29 51.45073 20.06602 26335 ft 388 kts 211°
2026-05-08 08:29 51.42753 20.04353 26743 ft 390 kts 211°
2026-05-08 08:29 51.40423 20.02098 27155 ft 392 kts 211°
2026-05-08 08:29 51.38084 19.99836 27538 ft 395 kts 211°
2026-05-08 08:30 51.35719 19.97551 27909 ft 397 kts 211°
2026-05-08 08:30 51.33341 19.95258 28282 ft 400 kts 211°
2026-05-08 08:30 51.28566 19.90662 28993 ft 405 kts 211°
2026-05-08 08:31 51.26137 19.88327 29272 ft 409 kts 212°
2026-05-08 08:31 51.23692 19.85980 29621 ft 411 kts 212°
2026-05-08 08:31 51.21228 19.83619 29965 ft 413 kts 212°
2026-05-08 08:31 51.18745 19.81242 30270 ft 416 kts 212°
2026-05-08 08:32 51.16262 19.78868 30541 ft 418 kts 212°
2026-05-08 08:32 51.13788 19.76505 30806 ft 420 kts 212°
2026-05-08 08:32 51.11269 19.74104 31071 ft 422 kts 212°
2026-05-08 08:32 51.08731 19.71687 31331 ft 424 kts 212°
2026-05-08 08:33 51.06190 19.69269 31579 ft 427 kts 212°
2026-05-08 08:33 51.03659 19.66865 31805 ft 429 kts 212°
2026-05-08 08:33 51.01086 19.64425 32073 ft 431 kts 212°
2026-05-08 08:33 50.98502 19.61977 32327 ft 433 kts 212°
2026-05-08 08:34 50.95899 19.59514 32634 ft 434 kts 212°
2026-05-08 08:34 50.93335 19.57094 32988 ft 433 kts 212°
2026-05-08 08:34 50.90747 19.54652 33329 ft 433 kts 212°
2026-05-08 08:34 50.88157 19.52212 33671 ft 432 kts 212°
2026-05-08 08:35 50.85567 19.49774 34009 ft 432 kts 212°
2026-05-08 08:35 50.82983 19.47347 34306 ft 431 kts 212°
2026-05-08 08:35 50.80397 19.44920 34556 ft 431 kts 212°
2026-05-08 08:35 50.77814 19.42500 34803 ft 432 kts 212°
2026-05-08 08:36 50.75229 19.40079 35049 ft 432 kts 212°
2026-05-08 08:36 50.72640 19.37658 35287 ft 432 kts 212°
2026-05-08 08:36 50.70067 19.35256 35534 ft 433 kts 212°
2026-05-08 08:36 50.67474 19.32838 35767 ft 433 kts 212°
2026-05-08 08:37 50.64876 19.30417 36000 ft 433 kts 212°
2026-05-08 08:37 50.62276 19.28000 36281 ft 433 kts 212°
2026-05-08 08:37 50.59716 19.25622 36499 ft 433 kts 212°
2026-05-08 08:37 50.57113 19.23207 36708 ft 433 kts 212°
2026-05-08 08:38 50.54509 19.20794 36919 ft 434 kts 212°
2026-05-08 08:38 50.51901 19.18380 37122 ft 434 kts 212°
2026-05-08 08:38 50.49286 19.15963 37317 ft 434 kts 212°
2026-05-08 08:38 50.46715 19.13590 37504 ft 434 kts 212°
2026-05-08 08:39 50.44103 19.11181 37699 ft 434 kts 212°
2026-05-08 08:39 50.41493 19.08779 37910 ft 434 kts 212°
2026-05-08 08:39 50.38913 19.06406 38076 ft 434 kts 212°
2026-05-08 08:39 50.36299 19.04006 38150 ft 435 kts 212°
2026-05-08 08:40 50.31028 18.99172 38122 ft 441 kts 212°
2026-05-08 08:40 50.25713 18.94312 38112 ft 446 kts 212°
2026-05-08 08:41 50.20322 18.89395 38108 ft 449 kts 212°
2026-05-08 08:41 50.14898 18.84464 38106 ft 449 kts 212°
2026-05-08 08:42 50.09635 18.79691 38091 ft 433 kts 212°
2026-05-08 08:42 50.04425 18.74978 38108 ft 432 kts 212°
2026-05-08 08:43 49.99222 18.70282 38106 ft 431 kts 212°